Weather Roundup
Issued by NWS Springfield, MO

Home | Current Version | Previous Version | Text Only | Print | Product List | Glossary On
Versions: 1 2 3 4 5 6 7 8 9 10 11 12 13 14 15 16 17 18 19 20 21 22 23 24 25 26 27 28 29 30 31 32 33 34 35 36 37 38 39 40 41 42 43 44 45 46 47 48 49 50
664
NZUS99 KSGF 102007
HRRSGF

HOURLY WEATHER
NATIONAL WEATHER SERVICE SPRINGFIELD MO
200 PM CST SUN DEC 10 2017

......SGF CWA......

CITY           SKY/WX    TMP DP  RH WIND       PRES   REMARKS
SPRINGFIELD    SUNNY     54  24  31 NW13G26   30.12R
JOPLIN         SUNNY     57  25  29 W15       30.16F
WEST PLAINS    SUNNY     58  23  26 W14G23    30.08F
ROLLA          SUNNY     53  25  33 W16G23    30.05R
OSAGE BEACH    SUNNY     54  26  34 NW9G17    30.08S
BRANSON        MOSUNNY   55  23  28 W15       30.13F

......SURROUNDING SGF CWA......

CITY           SKY/WX    TMP DP  RH WIND       PRES   REMARKS
CHANUTE        SUNNY     61  20  20 W15       30.17F
PARSONS        SUNNY     63  19  18 W12       30.18F
COFFEYVILLE    SUNNY     63  20  19 NW12      30.18F
EMPORIA        SUNNY     60  21  22 NW14G22   30.16F
GROVE OK       SUNNY     57  30  35 W8        30.19F
ROGERS AR      SUNNY     56  23  27 W10       30.17S
SILOAM SPRINGS SUNNY     58  23  26 W15       30.18F
HARRISON AR    SUNNY     60  19  20 NW16G24   30.13R
NEAR YELLVILLE SUNNY     63  22  20 W15G22    30.11S

......KANSAS AND MISSOURI......

CITY           SKY/WX    TMP DP  RH WIND       PRES   REMARKS
KANSAS CTY INT MOSUNNY   55  25  31 W13       30.10F
DOWNTOWN KC    SUNNY     56  26  31 W13       30.09F
COLUMBIA       SUNNY     52  25  35 W16       30.04S
SEDALIA        SUNNY     54  27  35 NW16      30.09S
ST JOSEPH      SUNNY     54  27  35 NW14      30.11S
ST LOUIS       MOSUNNY   51  25  36 W17       30.00
SPIRIT OF STL  SUNNY     52  25  35 W13       30.00R
KIRKSVILLE     SUNNY     49  25  39 NW16      30.03R
WICHITA        MOSUNNY   65  15  14 NW20      30.21F
TOPEKA         SUNNY     59  22  24 NW10      30.12F
OLATHE         SUNNY     54  25  32 W8G17     30.11S

......TENNESSEE......

CITY           SKY/WX    TMP DP  RH WIND       PRES   REMARKS
MEMPHIS        MOSUNNY   53  26  35 SW14      30.19F
NASHVILLE      MOSUNNY   49  17  28 S13G20    30.15F

......ARKANSAS.......

CITY           SKY/WX    TMP DP  RH WIND       PRES   REMARKS
FAYETTEVILLE   SUNNY     59  24  26 NW8       30.17F
FT SMITH       SUNNY     62  22  21 W17       30.19F
LITTLE ROCK    MOSUNNY   60  27  28 SW13      30.18F

......OKLAHOMA.......

CITY           SKY/WX    TMP DP  RH WIND       PRES   REMARKS
TULSA          SUNNY     65  22  19 W14G20    30.21F
PONCA CITY     SUNNY     64  17  16 NW12G18   30.22F
MCALESTER      SUNNY     67  22  18 NW9       30.23F
OKLAHOMA CITY  MOSUNNY   66  11  11 NW13      30.26F

......IOWA............

CITY           SKY/WX    TMP DP  RH WIND       PRES   REMARKS
DES MOINES     CLOUDY    47  25  42 NW16      30.03S
QUAD CITIES    SUNNY     40  25  55 NW17G23   29.96R WCI  31

......ILLINOIS........

CITY           SKY/WX    TMP DP  RH WIND       PRES   REMARKS
QUINCY         SUNNY     45  24  43 NW16      30.00R
CHICAGO        CLOUDY    33  20  58 NW13      29.89R WCI  24




USA.gov is the U.S. government's official web portal to all federal, state and local government web resources and services.